Regional Weather Roundup
Issued by NWS Upton, NY

Current Version | Previous Version | Text Only | Print | Product List | Glossary On
Versions: 1 2 3 4 5 6 7 8 9 10 11 12 13 14 15 16 17 18 19 20 21 22 23 24 25 26 27 28 29 30 31 32 33 34 35 36 37 38 39 40 41 42 43 44 45 46 47 48 49 50
000
ASUS41 KOKX 272008
RWROKX

REGIONAL WEATHER ROUNDUP
NATIONAL WEATHER SERVICE NEW YORK NY
400 PM EDT MON JUL 27 2015

NOTE: "FAIR" INDICATES FEW OR NO CLOUDS BELOW 12,000 FEET WITH NO
SIGNIFICANT WEATHER AND/OR OBSTRUCTIONS TO VISIBILITY.

NYZ071-072-176-178-NJZ106-104-272100-
NEW YORK CITY METRO AREA


CITY           SKY/WX    TMP DP  RH WIND       PRES   REMARKS
CENTRAL PARK   SUNNY     83  67  58 VRB5      30.02S
LAGUARDIA APRT MOSUNNY   84  66  54 S15G22    29.98F
KENNEDY INTL   MOSUNNY   83  68  60 SE16      30.01F
NEWARK/LIBERTY PTSUNNY   85  69  58 SE12      29.98F
BRNX BOT. GARD   N/A     81  66  61 S10       30.00R
TETERBORO      MOSUNNY   85  66  53 S14       29.97S
$$

NYZ177-179-078>081-272100-
LONG ISLAND NEW YORK

CITY           SKY/WX    TMP DP  RH WIND       PRES   REMARKS
FARMINGDALE    SUNNY     82  69  64 S10G21    30.01F
ISLIP          MOSUNNY   82  69  64 S12       29.99F
SHIRLEY        SUNNY     82  68  62 S14       30.02F
WESTHAMPTON    SUNNY     81  68  64 S12       30.03F
MONTAUK POINT    N/A     79  69  71 S7        30.04S
$$

NYZ052-065-067-272100-
HUDSON VALLEY

CITY           SKY/WX    TMP DP  RH WIND       PRES   REMARKS
WHITE PLAINS   MOSUNNY   83  69  62 SE10      30.00S
NEWBURGH       PTSUNNY   79  73  83 SE7       30.00
MONTGOMERY     PTSUNNY   85  68  56 SW9       29.98F
POUGHKEEPSIE   MOSUNNY   86  64  47 SW8       29.97S
ALBANY         PTSUNNY   87  67  51 VRB3      29.96F HX  90
$$

NJZ001-105-106-008-010-013-015-019>022-104-272100-
NEW JERSEY

CITY           SKY/WX    TMP DP  RH WIND       PRES   REMARKS
NEWARK/LIBERTY PTSUNNY   85  69  58 SE12      29.98F
TETERBORO      MOSUNNY   85  66  53 S14       29.97S
CALDWELL       PTSUNNY   83  67  58 S10       29.98S
MORRISTOWN     PTSUNNY   88  66  48 SW7       29.98F HX  90
SOMERVILLE     PTSUNNY   85  67  54 VRB3      29.96F
SUSSEX         MOSUNNY   84  67  56 VRB7      29.99F
ANDOVER          N/A     84  69  60 VRB6      30.01S
TRENTON        MOSUNNY   85  68  56 S8        29.98F
MILLVILLE      MOSUNNY   83  68  60 S8        30.00F
ATLANTIC CITY  PTSUNNY   81  68  64 S9        30.01F
WRIGHTSTOWN    PTSUNNY   85  69  58 S7        29.96F
TOMS RIVER     MOSUNNY   79  73  83 SE10      30.00F
BELMAR         MOSUNNY   79  68  69 SE10      30.01F
$$

PAZ047>061-062-071-272100-
EASTERN PENNSYLVANIA

CITY           SKY/WX    TMP DP  RH WIND       PRES   REMARKS
PHILADELPHIA   PTSUNNY   85  68  56 SW9       29.99F
ALLENTOWN      CLOUDY    82  68  62 CALM      30.00F
SCRANTON       MOSUNNY   84  67  56 MISG      30.01F
$$

CTZ002-004>006-009-010-012-RIZ004-006-007-MAZ004-011-015-272100-
SOUTHERN NEW ENGLAND
 IN CT

CITY           SKY/WX    TMP DP  RH WIND       PRES   REMARKS
BRADLEY INTL   PTSUNNY   85  67  54 S15       29.97F
HARTFORD       MOSUNNY   84  69  60 S12       29.99S
DANBURY        SUNNY     82  67  60 SW10      30.01F
WTRBRY/OXFORD  PTSUNNY   81  66  61 S13       30.05S
BRIDGEPORT     SUNNY     80  70  71 E6        30.00F
MERIDEN        MOSUNNY   83  65  54 S13       30.00S
NEW HAVEN      MOSUNNY   80  67  64 VRB5      30.01F
CHESTER        FAIR      81  64  57 S8        30.04S
GROTON         MOSUNNY   77  69  76 SE9       30.01F
WILLIMANTIC    PTSUNNY   81  66  60 S14       30.01R

 IN RI

CITY           SKY/WX    TMP DP  RH WIND       PRES   REMARKS
PROVIDENCE     PTSUNNY   80  68  66 S13       30.02S
BLOCK ISLAND   PTSUNNY   75  70  83 S9        30.04S
WESTERLY       MOSUNNY   77  68  73 VRB6      30.03F

 IN MA

CITY           SKY/WX    TMP DP  RH WIND       PRES   REMARKS
BOSTON         PTSUNNY   81  65  58 S13       29.97F
WORCESTER      PTSUNNY   78  65  63 S12       30.03S
WESTFIELD      MOSUNNY   85  66  53 S12       29.97S
PROVINCETOWN   PTSUNNY   77  59  53 S12G18    30.02S
NANTUCKET      CLOUDY    72  66  81 S10       30.04F
$$

ANZ330-335-338-340-345-350-353-355-272100-
COASTAL MARINE OBSERVATIONS


STATION/POSITION TIME  SKY/WX   TEMP    WIND        PRES    VSBY  WAVE
                                AIR SEA DIR/SP/G                  HT/PER
                 (UTC)          (F)     (DEG/KT/KT) (MB)    (MI)  (FT/S)
NY HARB ENTRANCE 1950            75 75  150/ 14/ 16 1015.5          2/11
4S FIRE IS       NOT AVBL
20S FIRE ISLAND  1950            76 74  170/  8/ 10 1016.0          2/11
GREAT SOUTH BAY  1915            76 80  170/ 12/ 12   N/A
23SW MTP         1950            74 74  180/  8/ 10 1016.3          2/11
HUDSON CANYON    NOT AVBL
KINGS POINT      1900            81 74  190/ 11/ 14 1015.1
CENTRAL LI SOUND NOT AVBL
EASTERN LI SOUND 1900            72 69  130/  4/  6   N/A
ROBBINS REEF     1900            74     160/ 19/ 21 1014.7
$$


>>>>>>>>>>>>>>>>>>>>>>>>>>>> KEY <<<<<<<<<<<<<<<<<<<<<<<<<<<
>                                                          <
>     SKY/WX - SKY CONDITION/PRESENT WEATHER               <
>     TMP    - TEMPERATURE IN FAHRENHEIT                   <
>     DP     - DEWPOINT IN FAHRENHEIT                      <
>     RH     - RELATIVE HUMIDITY IN PERCENT                <
>     WIND   - DIRECTION AND SPEED IN MPH                  <
>     PRES   - MEAN SEA LEVEL PRESSURE IN INCHES OF HG     <
>     WCI    - WIND CHILL INDEX                            <
>     VSB    - VISIBILITY IN MILES                         <
>     HX     - HEAT INDEX                                  <
>     TC     - TEMPERATURE IN CELSIUS                      <
>     VRB    - VARIABLE WIND DIRECTION                     <
>                                                          <
>>>>>>>>>>>>>>>>>>>>>>>>>>>> KEY <<<<<<<<<<<<<<<<<<<<<<<<<<<





USA.gov is the U.S. government's official web portal to all federal, state and local government web resources and services.